Zurück zum Katalog

ATLAS 5 CENTAUR R/B

AktivHEO
NORAD 29056·ROCKET BODY·🇺🇸 United States

Gestartet Apr 20, 2006 von Cape Canaveral Space Force Station

Loading…

Nächste Überflüge (nächste 24 Stunden)

TLE

AktuellSource: Space-Track

Epoche: Sep 14, 2026, 01:39 UTC

1 29056U 06012B   26257.06924338 -.00000318  00000-0  00000-0 0  9991
2 29056  22.5591 164.8835 5436495 299.4244 296.7043  1.96356593146338

Verfolge ATLAS 5 CENTAUR R/B in Echtzeit mit AllMySat

Download on the App Store